This is the latest recevied weather packets stored in our database for station/object LKPD. If no packets are shown the sender has not sent any weather packets the latest 1 day(s).
| Time | Temp. | Humidity | Pressure | Rain* | Wind** | Luminosity | Snow |
|---|---|---|---|---|---|---|---|
| 1777965583 | 17.78° C | 45% | - | - | 0.89 m/s, 280° | - | - |
| 1777964545 | 17.22° C | 48% | 1009 hPa | - | 1.34 m/s, 280° | - | - |
| 1777962736 | 16.11° C | 51% | 1008 hPa | - | 1.34 m/s, 130° | - | - |
| 1777961983 | 16.11° C | 48% | - | - | 2.24 m/s, 120° | - | - |
| 1777960938 | 15° C | 51% | 1008 hPa | - | 3.13 m/s, 90° | - | - |
| 1777958382 | 12.22° C | 66% | - | - | 4.02 m/s, 100° | - | - |
| 1777957344 | 11.11° C | 76% | 1008 hPa | - | 3.13 m/s, 90° | - | - |
| 1777955530 | 10° C | 81% | 1008 hPa | - | 2.68 m/s, 100° | - | - |
| 1777954782 | 10° C | 81% | - | - | 2.24 m/s, 100° | - | - |
| 1777953738 | 10° C | 81% | 1008 hPa | - | 2.68 m/s, 90° | - | - |
| 1777951930 | 12.22° C | 76% | 1009 hPa | - | 0.89 m/s, 50° | - | - |
| 1777951181 | 12.78° C | 71% | - | - | 0.89 m/s, 50° | - | - |
| 1777950139 | 12.22° C | 76% | 1009 hPa | - | 2.24 m/s, 60° | - | - |
| 1777948330 | 11.11° C | 81% | 1010 hPa | - | 0.89 m/s, 100° | - | - |
| 1777947581 | 12.22° C | 76% | - | - | 0.89 m/s, 110° | - | - |
| 1777946537 | 12.22° C | 81% | 1010 hPa | - | 0.45 m/s, 0° | - | - |
| 1777944730 | 11.11° C | 81% | 1010 hPa | - | 2.68 m/s, 100° | - | - |
| 1777943984 | 12.22° C | 76% | - | - | 2.24 m/s, 100° | - | - |
| 1777942937 | 11.11° C | 81% | 1010 hPa | - | 2.24 m/s, 70° | - | - |
| 1777941130 | 12.22° C | 81% | 1011 hPa | - | 4.02 m/s, 260° | - | - |
| 1777940381 | 12.78° C | 76% | - | - | 3.13 m/s, 260° | - | - |
| 1777939339 | 12.22° C | 81% | 1011 hPa | - | 2.68 m/s, 260° | - | - |
* Rain since midnight (hover to see other rain measurements)
** Current wind speed in m/s (hover to see current wind gust speed)